Preview of NWS' New Version of Forecast
This preview is not operational and should not be used for support decisions.

Regional Weather Roundup (RWR)

Issued by National Weather Service (NWS)

                            
000
ASUS42 KTBW 171216
RWRFL 
FLORIDA REGIONAL WEATHER ROUNDUP
NATIONAL WEATHER SERVICE TAMPA BAY RUSKIN FL
800 AM EDT MON JUN 17 2019

NOTE: "FAIR" INDICATES FEW OR NO CLOUDS BELOW 12,000 FEET WITH NO
SIGNIFICANT WEATHER AND/OR OBSTRUCTIONS TO VISIBILITY.

FLZ001>010-012>015-112-114-115-171300-
PANHANDLE FLORIDA
  
CITY           SKY/WX    TMP DP  RH WIND       PRES   REMARKS
PENSACOLA      FAIR      80  77  90 CALM      29.99R                  
PENSACOLA NAS  FAIR      79  78  97 CALM      29.98R                  
MILTON NAS     FAIR      74  72  93 E3        30.00R                  
CRESTVIEW      FAIR      74  70  87 CALM      30.02R                  
DUKE FIELD     FAIR      74  74 100 CALM      30.00R                  
VALPARAISO     FAIR      77  73  87 NE3       29.99R                  
MARY ESTHER    MOSUNNY   77  74  91 E3        29.98R                  
TRI COUNTY     FAIR      76  73  91 CALM      30.02R                  
PANAMA CITY    FAIR      77  73  87 E6        29.99R                  
TYNDALL AFB    FAIR      78  74  86 E5        29.99R                  
APALACHICOLA   FAIR      77  73  87 NE3       29.99R                  

STATION/POSITION SKY/WX   TEMP    WIND        PRES    WAVE   SWELL
                          AIR SEA DIR/SP/G            HT/PER HT/PER
                          (F)     (DEG/KT/KT) (MB)    (FT/S) (FT/S)
30.1N   87.6W                                   N/A     1/ 4
29.2N   88.2W                     160/  8/ 12 1014.6R   2/ 7   2/ 7
PANAMA CITY BEAC NOT AVBL
TOWER C          NOT AVBL

$$
FLZ011-016>038-118-127-128-134-139-239-171300-
NORTH FLORIDA
  
CITY           SKY/WX    TMP DP  RH WIND       PRES   REMARKS
MARIANNA       FAIR      77  75  93 SE7       30.01S                  
TALLAHASSEE    FAIR      74  72  93 E6        30.02R                  
PERRY          FAIR      73  73  97 E6        30.05R                  
LIVE OAK       SUNNY     72  72 100 CALM      30.05S                  
CROSS CITY     FAIR      73  72  96 SE3       30.04S                  
LAKE CITY      FAIR      72  70  94 CALM      30.07R                  
GAINESVILLE    FAIR      78  73  84 E3        30.08R                  
PALATKA        FAIR      75  73  94 SE3       30.06S                  
MAYPORT NAS    FAIR      78  73  84 S3        30.06S                  
JACKSONVILLE   FAIR      77  74  90 NE3       30.06R                  
JAX NAS        FAIR      78  71  79 E3        30.07R                  
JAX CECIL      SUNNY     77  73  88 CALM      30.06R                  
FERNANDINA BEA FAIR      78  73  84 S5        30.07S                  
ST AUGUSTINE   FAIR      79  73  82 SE3       30.07R                  
PALM COAST     SUNNY     73  73 100 CALM      30.06R                  

STATION/POSITION SKY/WX   TEMP    WIND        PRES    WAVE   SWELL
                          AIR SEA DIR/SP/G            HT/PER HT/PER
                          (F)     (DEG/KT/KT) (MB)    (FT/S) (FT/S)
SHELL POINT      NOT AVBL
KEATON BEACH               74      80/  9/ 10 1017.0R
CEDAR KEY                                       N/A
FERNANDINA       NOT AVBL
30.7N   81.3W                 82                N/A     2/ 8
MAYPORT          NOT AVBL
31.4N   80.9W              80 82  210/ 10/ 12 1018.1R   2/ 5   2/ 5
ST AUGUSTINE               79 80  110/  4/  4 1018.3R

$$
FLZ040-043>046-052-053-057-058-063-144-171300-
INTERIOR CENTRAL FLORIDA
  
CITY           SKY/WX    TMP DP  RH WIND       PRES   REMARKS
OCALA          FAIR      75  74  96 E7        30.06R                  
LEESBURG       FAIR      76  71  85 E8        30.06R                  
SANFORD        FAIR      75  73  93 E5        30.06R                  
ORLANDO EXEC   FAIR      76  73  91 E5        30.06R                  
ORLANDO INTL   FAIR      75  72  90 E5        30.06R                  
KISSIMMEE      FAIR      76  74  93 E6        30.07R                  
WINTER HAVEN   FAIR      77  73  87 E9        30.06R                  
LAKELAND       PTSUNNY   75  72  88 E5        30.05R                  
BARTOW         PTSUNNY   75  73  94 E5        30.04R                  
SEBRING        FAIR      74  72  94 E3        30.06R                  
OKEECHOBEE     CLOUDY    73  72  94 E3        30.05R                  

$$
FLZ041-047-054-059-064-141-147-171300-
EAST CENTRAL FLORIDA
  
CITY           SKY/WX    TMP DP  RH WIND       PRES   REMARKS
ORMOND BEACH   SUNNY     77  77 100 CALM      30.06R                  
DAYTONA BEACH  PTSUNNY   80  76  87 S5        30.06R                  
DELAND         FAIR      75  72  88 SE5       30.06R                  
NEW SMYRNA BEA PTSUNNY   79  73  83 SE5       30.07R                  
JFK SPACE CTR  PTSUNNY   76  66  71 SE12      30.07R                  
TITUSVILLE     MOSUNNY   81  79  94 E7        30.07R                  
CAPE CANAVERAL DRIZZLE   74  -1   5 E14       30.07R                  
PATRICK AFB    FAIR      77  77 100 E14       30.07R                  
MELBOURNE      PTSUNNY   78  72  81 E10       30.06R                  
VERO BEACH     PTSUNNY   79  72  79 SE9       30.06R                  
FT PIERCE      CLOUDY    78  70  76 S9G20     30.06R                  
STUART         RAIN      73  70  88 SE12G20   30.08R                  

STATION/POSITION SKY/WX   TEMP    WIND        PRES    WAVE   SWELL
                          AIR SEA DIR/SP/G            HT/PER HT/PER
                          (F)     (DEG/KT/KT) (MB)    (FT/S) (FT/S)
28.5N   80.2W              75 82  120/ 14/ 17 1018.8R   3/ 4   2/ 8
28.9N   78.5W              82 83  130/ 12/ 14   N/A     3/ 8   2/ 8
TRIDENT PIER     NOT AVBL
28.4N   80.5W                 78                N/A     2/ 4
27.5N   80.2W                 80                N/A     2/ 4

$$
FLZ050-056-061-142-242-148-248-149-249-151-251-155-255-
160-260-171300-
WEST CENTRAL FLORIDA
  
CITY           SKY/WX    TMP DP  RH WIND       PRES   REMARKS
CRYSTAL RIVER  FAIR      73  72  94 CALM      30.04R                  
INVERNESS      FAIR      73  73 100 SE5       30.05R FOG              
BROOKSVILLE    FAIR      75  72  90 E6        30.05R                  
CLEARWATER AIR FAIR      77  70  78 E10       30.02R                  
ST PETE CLEARW FAIR      76  72  87 SE12      30.02R                  
TAMPA INTL     PTSUNNY   76  71  85 E7        30.04R                  
TAMPA EXEC     PTSUNNY   73  73 100 E3        30.04S                  
PLANT CITY     CLOUDY    75  75 100 E5        30.07R                  
MACDILL AFB    PTSUNNY   75  73  94 E9        30.02S                  
PETER O KNIGHT CLOUDY   N/A N/A N/A E7        30.04R                  
ST PETERSBURG  FAIR      77  73  87 SE10      30.01S                  
SARASOTA       FAIR      77  72  84 SE8       30.00S                  
VENICE         FAIR      75  75 100 E8        30.02F                  

STATION/POSITION SKY/WX   TEMP    WIND        PRES    WAVE   SWELL
                          AIR SEA DIR/SP/G            HT/PER HT/PER
                          (F)     (DEG/KT/KT) (MB)    (FT/S) (FT/S)
27.3N   84.2W                 82                N/A     3/ 5
CLEARWATER BEACH NOT AVBL
MIDDLE TAMPA BAY NOT AVBL
VENICE                     76 85  100/  7/  9 1016.4R

$$
FLZ066-069-070-075>078-162-262-165-265-171300-
SOUTHWEST FLORIDA AND KEYS
  
CITY           SKY/WX    TMP DP  RH WIND       PRES   REMARKS
PUNTA GORDA    FAIR      76  72  87 E7        30.04R                  
FT MYERS       PTSUNNY   71  70  96 SW7       30.02R                  
SOUTHWEST INTL PTSUNNY   82  73  74 E6        30.02R                  
NAPLES         FAIR      74  74 100 E5        30.02R                  
IMMOKALEE      FAIR      77  73  88 E5        30.01R                  
MARATHON       PTSUNNY   87  77  72 S6        30.00S HX  99           
KEY WEST NAS   PTSUNNY   85  76  74 S10       30.01R                  
KEY WEST INTL  FAIR      83  76  79 S12       30.01R                  

STATION/POSITION SKY/WX   TEMP    WIND        PRES    WAVE   SWELL
                          AIR SEA DIR/SP/G            HT/PER HT/PER
                          (F)     (DEG/KT/KT) (MB)    (FT/S) (FT/S)
NAPLES           NOT AVBL
DRY TORTUGAS               83     180/ 12/ 13 1015.8R
SAND KEY                   83                 1016.1R
SOMBRERO KEY               83                 1015.3R

$$
FLZ067-068-071>074-168-172>174-171300-
SOUTHEAST FLORIDA 
  
CITY           SKY/WX    TMP DP  RH WIND       PRES   REMARKS
W PALM BEACH   PTSUNNY   78  72  81 E8        30.05R                  
BOCA RATON     MOSUNNY   77  75  94 E7        30.03R                  
FT LAUDER-EXEC PTSUNNY   79  75  87 NE5       30.02R                  
FT LAUDERDALE  HVY RAIN  81  76  84 S16G24    30.02R                  
POMPANO BEACH  PTSUNNY   80  75  84 E8        30.02R                  
PEMBROKE PINES PTSUNNY   79  75  87 S9        30.03R                  
OPA LOCKA      PTSUNNY   80  72  76 SE10      30.03R                  
MIAMI          PTSUNNY   80  71  74 SE7       30.02R                  
WEST KENDALL   PTSUNNY   80  77  90 CALM      30.01S                  
HOMESTEAD      FAIR      80  76  86 SE3       30.00S                  

STATION/POSITION SKY/WX   TEMP    WIND        PRES    WAVE   SWELL
                          AIR SEA DIR/SP/G            HT/PER HT/PER
                          (F)     (DEG/KT/KT) (MB)    (FT/S) (FT/S)
SETTLEMENT POINT           76     130/ 16/ 20 1018.3R

$$